Temperature
21 21 21 21 21 21 20 20 21 21 20 18 16 15 13 12 12 10 9 10 10 10 11 12 13 13 14 14 14 15 15 15 15 15 15 15 15 15 15 15 15 15 15 15 15 15 15 16 16
22 22 21 22 22 20 19 19 19 19 20 17 15 14 12 11 10 10 9 10 10 10 11 12 12 13 13 14 14 14 14 14 15 15 15 15 15 15 15 15 15 15 15 15 15 15 15 15 16
22 22 22 22 20 19 19 19 19 19 18 17 13 11 10 10 9 9 9 9 10 10 10 11 12 12 13 13 13 14 14 14 14 14 14 14 15 15 15 15 15 15 14 14 15 15 15 15 15
21 22 24 20 17 17 18 18 19 19 17 16 14 11 9 9 9 9 9 9 9 10 10 11 12 12 12 13 13 13 13 13 13 14 14 14 14 14 14 14 15 15 14 14 14 15 15 15 15
22 24 21 18 17 16 16 17 16 16 16 15 13 11 9 9 9 9 9 9 9 10 10 11 11 12 12 12 12 12 13 13 13 13 13 13 13 13 14 14 14 14 14 14 14 14 14 15 15
24 25 21 18 17 16 15 14 15 14 14 14 13 11 9 9 9 9 9 9 9 10 10 11 11 11 11 12 12 12 12 12 12 12 13 13 13 13 13 13 13 14 14 14 14 14 14 14 14
24 22 20 19 17 16 16 14 13 12 12 11 13 12 10 9 9 9 9 9 9 9 10 10 11 11 11 11 11 11 11 12 12 12 12 12 12 12 12 13 13 13 13 13 13 14 14 14 14
24 22 21 20 18 15 14 13 11 11 10 10 11 10 9 9 9 9 8 8 8 9 9 10 10 10 10 11 10 11 10 10 11 11 11 12 12 12 12 12 12 12 13 13 13 13 13 13 14
24 20 17 18 17 15 14 13 11 10 10 9 9 9 9 8 8 8 8 8 8 8 9 9 9 10 10 10 10 10 9 9 9 9 10 10 11 11 11 12 12 12 12 12 12 12 13 13 13
20 17 15 16 16 15 14 13 13 11 10 10 9 8 8 8 7 7 7 7 7 7 7 8 8 8 9 9 8 8 7 7 7 7 7 8 9 9 9 10 11 11 11 11 12 12 12 12 13
19 16 15 15 14 14 13 13 12 11 9 9 8 8 7 7 6 6 6 6 5 6 6 6 7 7 7 7 7 6 5 5 5 5 5 5 6 7 8 9 9 10 10 11 11 12 12 12 12
16 16 15 14 14 13 12 11 10 9 8 8 8 7 7 6 6 5 5 5 5 5 5 5 5 5 5 5 5 4 3 3 3 3 3 3 4 4 5 6 6 7 8 8 9 10 11 11 12
14 13 13 12 12 11 11 10 9 8 8 8 8 7 6 6 5 5 4 4 4 4 4 4 4 4 4 4 3 3 2 2 1 1 1 1 2 2 3 4 4 4 5 6 7 8 9 10 11
14 13 12 12 12 11 10 10 9 9 8 8 8 7 6 6 5 4 4 4 3 3 3 3 3 3 3 3 2 2 1 1 0 -0 -0 -0 -0 0 1 2 2 2 3 4 5 5 6 7 9
14 13 13 13 12 11 11 10 9 9 9 9 8 7 7 6 5 4 3 2 2 2 2 2 2 2 2 2 1 1 0 -1 -1 -1 -1 -1 -1 -1 -1 -0 0 0 1 2 3 4 4 5 7
16 15 14 14 13 13 12 10 9 9 9 9 8 8 7 6 5 4 3 2 2 1 1 1 1 1 1 0 0 0 -1 -1 -2 -2 -2 -3 -3 -3 -2 -2 -1 -1 -0 0 1 1 3 4 5
18 18 16 14 14 14 13 11 9 9 9 9 8 8 7 6 5 4 3 2 1 1 0 -0 -0 -1 -1 -1 -1 -1 -2 -2 -3 -3 -3 -4 -4 -4 -4 -3 -3 -2 -2 -1 -1 -0 0 2 3
19 20 19 15 14 14 13 10 9 9 9 9 8 7 7 6 5 3 2 2 1 -0 -0 -1 -1 -1 -2 -2 -2 -2 -3 -3 -4 -4 -4 -5 -5 -5 -5 -4 -4 -4 -3 -3 -2 -2 -1 -0 1
19 19 18 14 13 13 13 9 9 9 8 8 8 7 6 5 4 3 2 1 0 -1 -1 -2 -2 -3 -3 -4 -4 -4 -4 -5 -5 -5 -5 -5 -6 -6 -6 -5 -5 -5 -5 -4 -4 -4 -3 -2 -1
19 19 18 13 12 13 12 10 9 9 8 7 7 7 6 5 4 3 2 1 -1 -2 -2 -3 -4 -4 -5 -5 -5 -6 -6 -6 -6 -6 -6 -6 -6 -6 -6 -6 -6 -6 -6 -5 -5 -5 -4 -3 -3
19 17 16 15 12 12 11 10 9 8 7 7 7 6 6 5 3 2 1 -0 -2 -2 -3 -4 -4 -5 -6 -6 -6 -6 -6 -6 -6 -7 -7 -7 -7 -7 -7 -7 -7 -7 -6 -6 -6 -5 -5 -4 -3
17 15 15 14 13 12 10 11 8 7 7 7 7 6 5 4 3 2 1 -1 -2 -3 -4 -4 -5 -6 -6 -6 -7 -7 -7 -7 -7 -8 -8 -7 -8 -8 -8 -8 -8 -7 -7 -7 -7 -6 -6 -5 -4
15 14 14 14 13 13 11 11 9 8 7 7 7 6 5 4 3 1 -0 -1 -3 -3 -4 -5 -6 -6 -6 -7 -7 -8 -8 -8 -8 -8 -8 -8 -8 -8 -8 -8 -8 -8 -8 -8 -7 -7 -6 -5 -5
14 14 14 13 13 13 14 12 9 8 8 6 6 5 5 3 2 1 -1 -2 -3 -4 -5 -5 -6 -6 -6 -7 -7 -8 -8 -8 -8 -8 -9 -9 -9 -9 -9 -9 -9 -9 -9 -8 -8 -7 -6 -6 -5
15 15 14 14 13 14 14 13 8 6 6 6 6 5 4 3 1 -0 -1 -3 -4 -4 -5 -6 -6 -6 -7 -7 -7 -8 -8 -9 -9 -9 -9 -9 -10 -10 -10 -10 -10 -10 -9 -9 -8 -8 -7 -6 -6
15 15 13 13 13 14 13 11 5 6 6 6 6 5 4 2 1 -1 -2 -3 -4 -5 -5 -6 -6 -6 -7 -7 -8 -8 -9 -9 -10 -10 -10 -10 -10 -10 -10 -10 -10 -10 -10 -9 -9 -8 -8 -7 -6
14 14 14 12 13 13 13 6 6 6 6 6 6 4 3 1 -0 -1 -2 -3 -4 -5 -5 -6 -6 -7 -7 -8 -8 -8 -9 -9 -10 -10 -10 -10 -11 -11 -11 -11 -11 -11 -10 -10 -9 -9 -8 -7 -7
14 13 13 12 12 11 13 11 7 6 6 6 5 3 2 1 -1 -2 -3 -4 -4 -5 -5 -6 -7 -7 -8 -8 -8 -9 -9 -10 -10 -10 -11 -11 -11 -11 -11 -11 -11 -11 -11 -10 -10 -9 -8 -8 -7
14 14 14 13 12 10 10 9 7 6 5 5 4 3 1 0 -1 -2 -3 -4 -5 -5 -6 -6 -7 -7 -8 -8 -8 -9 -10 -10 -10 -11 -11 -11 -11 -12 -12 -12 -12 -12 -11 -11 -10 -10 -9 -8 -7
12 12 12 11 11 12 10 7 7 6 6 5 4 3 1 -1 -2 -3 -4 -4 -5 -6 -6 -7 -7 -8 -8 -9 -9 -9 -10 -10 -11 -11 -12 -12 -12 -12 -12 -12 -12 -12 -12 -11 -11 -10 -9 -8 -8
Wind_Speed
18 17 6 2 1 9 15 13 14 12 9 17 16 14 14 15 10 7 5 12 14 15 21 26 29 30 30 30 30 29 29 28 27 26 24 22 21 19 18 17 15 14 12 11 11 11 10 10 10
13 12 4 2 6 11 12 12 15 18 12 12 15 16 13 12 11 5 7 12 15 16 19 24 27 29 29 30 30 30 29 29 28 28 26 25 23 21 19 18 17 15 14 13 12 11 11 11 10
11 8 3 4 12 11 10 11 12 18 21 12 9 11 8 7 7 6 9 14 16 16 19 24 27 28 28 29 29 29 29 29 29 28 28 26 25 24 22 20 18 16 15 15 14 13 12 11 11
5 4 3 12 18 17 15 13 9 12 14 16 11 10 7 6 5 6 9 14 14 17 21 23 27 28 28 28 29 29 29 29 29 29 29 27 26 25 24 23 21 19 17 15 14 14 13 12 11
4 3 10 12 13 12 16 17 20 20 9 14 14 9 7 7 5 7 8 14 12 16 22 24 28 29 28 28 29 28 28 29 28 29 30 29 27 25 25 24 24 23 21 18 16 15 14 13 12
4 3 9 12 14 13 14 18 16 17 14 12 9 10 7 7 7 7 10 12 17 18 21 24 27 29 29 29 29 28 27 28 28 28 30 30 28 26 25 25 25 25 23 22 19 17 15 14 13
5 9 12 14 12 9 9 10 16 13 13 12 9 7 6 9 8 9 9 13 17 20 22 24 26 28 29 29 29 28 27 28 28 28 30 30 28 27 26 27 27 26 25 24 22 19 17 15 14
4 6 12 11 9 6 7 8 9 12 10 9 12 8 6 8 9 9 9 10 12 18 21 24 26 27 28 27 27 28 27 27 28 28 29 29 28 27 26 27 28 27 27 26 24 22 20 18 17
5 8 9 8 7 7 10 8 8 9 13 14 12 12 9 9 9 10 10 11 13 16 18 23 25 26 27 26 26 26 25 26 26 25 28 27 25 24 24 27 28 28 28 28 26 25 24 21 17
9 5 7 9 10 11 13 11 9 9 14 13 11 11 10 10 11 11 13 14 15 16 15 21 23 25 26 25 24 23 22 23 24 24 25 23 23 22 23 26 26 27 27 26 27 28 25 21 15
7 8 9 12 14 14 13 11 10 9 9 11 10 10 10 11 12 13 13 13 13 13 14 18 22 24 25 23 22 21 21 21 23 24 24 23 21 21 21 21 21 23 23 21 24 23 20 19 16
8 13 11 10 11 12 10 8 9 12 9 9 9 10 10 11 12 13 13 12 12 13 14 15 23 23 24 24 22 21 20 20 21 22 24 22 18 18 19 18 19 19 18 18 18 17 20 20 20
10 9 13 15 16 15 16 13 11 11 10 8 9 10 10 11 11 11 11 12 13 14 15 13 22 23 24 23 21 21 20 20 22 22 22 22 18 16 18 18 18 18 18 17 16 15 15 15 16
13 16 14 13 12 9 13 10 7 8 8 8 8 9 9 10 11 11 12 13 14 14 15 14 19 23 25 22 21 20 21 21 22 21 22 22 21 19 18 16 16 16 18 19 16 15 12 11 12
16 12 11 8 8 9 10 8 7 8 6 6 7 8 9 9 10 11 11 12 12 13 14 14 18 23 24 22 22 21 21 22 21 21 22 23 23 21 20 15 13 16 20 20 16 14 12 11 13
9 8 7 8 9 8 5 5 9 6 4 5 6 7 8 9 10 10 11 10 11 12 14 13 20 22 23 22 22 21 22 22 21 21 21 23 24 23 21 15 13 19 19 16 10 10 11 11 12
8 6 7 7 4 5 5 6 9 5 3 3 5 7 8 8 10 10 10 10 11 12 13 14 15 18 21 21 21 21 21 21 21 20 20 23 24 24 22 16 16 20 16 11 12 12 11 12 12
5 6 4 8 4 3 3 9 9 5 2 2 5 7 8 9 9 9 10 10 11 11 12 13 13 17 20 18 18 16 16 18 20 19 20 23 23 24 22 17 18 18 11 10 11 14 12 12 12
7 6 4 6 4 2 3 10 9 7 4 3 6 6 7 8 9 9 9 10 10 11 12 13 13 13 14 11 12 12 12 11 12 18 22 23 23 23 21 17 16 15 10 12 14 13 14 12 12
5 6 2 6 5 2 3 8 9 8 5 5 4 4 6 7 8 9 9 9 10 11 11 11 12 12 12 10 10 8 10 9 13 18 21 22 23 23 20 18 14 13 10 12 13 14 11 11 11
3 4 5 2 5 3 3 7 11 9 7 5 4 2 7 8 8 8 8 9 10 10 11 13 12 12 13 16 13 12 7 8 8 10 8 19 23 22 20 19 17 14 10 10 13 13 13 12 12
4 6 5 5 3 4 7 3 9 11 8 7 3 6 8 8 7 8 9 9 9 9 9 10 11 10 12 15 11 13 12 11 12 10 8 18 22 22 20 19 19 15 11 12 12 12 12 12 11
5 4 5 7 5 4 6 5 5 9 8 7 5 8 7 7 8 8 9 9 9 9 9 9 10 10 11 13 11 11 11 10 10 11 11 10 16 19 20 21 19 16 12 11 13 13 12 11 11
6 7 7 4 3 5 5 7 4 3 5 7 7 7 7 8 8 9 8 8 8 8 8 9 10 10 9 9 9 11 12 13 13 13 12 11 8 11 18 21 19 18 14 12 12 13 14 12 12
5 7 3 3 4 4 1 1 6 7 10 8 5 5 7 8 8 8 9 8 8 9 9 9 10 11 11 11 11 11 11 11 12 12 12 13 11 10 9 19 17 16 16 16 14 13 13 13 12
6 5 4 4 6 6 3 3 6 9 7 3 2 6 8 9 8 8 8 8 8 9 9 9 10 11 11 11 11 9 10 9 8 11 11 11 10 9 14 19 19 19 20 18 14 11 13 12 12
7 5 2 3 7 6 1 6 6 6 5 2 6 8 8 8 8 8 8 8 8 8 9 9 10 11 11 11 11 10 10 10 10 10 9 7 9 15 18 19 16 17 18 16 12 10 13 13 12
3 4 4 4 5 6 7 4 5 6 2 6 7 8 8 7 7 8 7 8 8 8 8 9 9 10 10 11 11 14 11 9 9 9 11 10 11 16 15 14 14 14 15 14 12 11 13 14 13
1 3 2 4 4 3 6 1 5 7 4 4 6 7 7 7 7 7 8 8 8 8 8 8 9 10 10 11 11 12 11 9 10 9 10 9 11 14 12 13 13 15 15 13 14 13 15 16 15
2 3 3 3 5 4 5 0 7 6 4 4 6 7 7 8 8 8 8 8 8 9 9 9 10 10 11 11 12 12 12 11 11 11 11 13 11 13 14 13 14 15 16 15 15 15 16 17 15
Wind_Direction
311 299 278 270 70 70 68 56 47 50 78 62 58 66 73 53 40 73 323 328 354 14 17 15 18 22 23 23 23 21 20 17 14 10 6 0 354 348 342 340 338 335 329 320 312 305 300 298 297
303 298 298 260 93 84 71 66 57 40 74 88 58 55 61 59 38 51 350 341 4 20 26 19 21 23 24 24 23 22 21 19 17 13 9 4 360 355 348 342 340 336 331 323 314 306 296 289 286
281 269 270 49 62 62 67 55 84 64 43 64 73 48 49 35 22 13 355 354 11 20 28 24 22 23 23 23 22 21 19 18 16 14 10 7 4 1 357 351 345 338 330 323 314 309 300 289 280
296 262 73 76 73 46 42 31 29 85 54 49 79 71 71 36 7 8 4 9 17 19 21 22 21 20 20 21 19 18 17 15 14 13 10 7 5 4 3 359 355 347 337 326 316 309 303 295 283
241 87 82 85 79 62 41 45 50 56 59 57 75 85 79 48 32 26 23 23 22 19 17 17 18 17 16 16 16 14 14 12 11 10 8 5 3 3 4 4 0 354 346 335 322 309 303 298 289
267 115 96 93 98 91 60 38 54 61 53 37 85 101 72 44 29 36 37 30 27 21 18 16 15 14 11 10 11 9 9 9 7 8 6 3 1 1 2 1 359 355 350 342 331 318 304 296 289
31 79 101 108 99 75 62 57 43 54 43 15 17 89 78 37 24 39 44 33 30 24 19 16 14 11 6 4 6 5 5 6 4 5 4 1 359 358 358 359 355 352 349 344 337 327 313 298 287
333 95 98 96 89 87 75 67 53 43 48 29 31 67 63 31 28 31 39 33 27 25 19 15 11 9 4 358 0 360 360 2 1 2 2 360 357 356 354 355 351 350 347 343 339 335 324 307 290
12 67 48 34 91 104 116 104 87 84 80 70 67 72 67 43 36 31 29 26 23 21 17 14 9 7 2 357 357 354 356 359 358 359 358 358 355 352 352 351 348 349 346 344 344 340 330 317 297
39 68 57 44 83 99 92 96 111 92 78 79 77 70 61 49 36 32 28 23 19 16 12 12 7 5 2 357 353 351 353 355 355 357 355 356 354 349 352 348 346 346 344 346 345 340 336 328 312
52 92 98 77 90 99 96 81 76 105 70 65 68 65 52 49 40 31 28 24 20 14 11 10 6 4 2 356 352 349 351 353 351 353 353 355 353 349 350 346 342 342 343 346 342 340 335 329 320
77 70 93 102 99 98 92 84 67 72 91 82 70 62 54 46 42 32 23 20 16 13 10 8 4 3 1 355 351 350 350 350 348 348 352 355 352 350 348 342 338 339 340 340 340 333 328 327 324
87 84 75 80 80 86 92 92 96 98 101 96 82 66 55 49 42 37 24 20 16 12 8 5 2 3 359 354 351 348 347 347 345 346 351 354 354 349 345 338 336 335 340 340 334 327 327 328 323
108 112 113 112 111 108 107 109 101 114 121 111 92 74 60 53 47 35 26 20 15 11 6 2 1 2 358 354 350 346 345 345 344 344 348 353 354 346 342 335 333 335 341 335 328 326 327 324 324
125 120 128 136 126 141 130 98 107 131 143 123 105 94 76 58 55 40 30 23 16 10 6 2 359 360 357 352 350 346 345 345 342 343 346 353 351 344 341 334 332 338 338 333 331 327 330 328 328
164 156 145 159 161 175 255 136 134 146 129 91 74 73 65 63 57 46 34 26 18 13 7 3 360 357 355 351 351 346 345 343 341 343 347 351 346 344 341 335 334 339 338 336 333 335 338 332 326
204 221 135 153 164 167 231 128 142 150 155 123 77 59 48 44 50 47 34 27 19 16 9 2 359 358 353 351 349 343 343 341 340 343 347 346 344 343 339 333 337 339 337 337 337 338 334 328 324
345 338 109 132 122 217 219 121 139 160 193 110 70 53 46 36 40 46 33 29 20 17 11 0 358 356 352 352 345 341 341 338 336 341 345 345 342 340 337 334 339 339 336 337 335 334 332 327 323
332 337 43 100 104 265 189 144 156 161 185 72 51 32 37 37 29 39 32 29 18 14 10 359 356 353 352 352 344 341 339 335 334 343 343 340 340 338 337 338 337 337 335 333 333 334 329 329 327
322 318 56 125 126 246 177 172 163 168 145 69 14 13 29 35 21 22 24 27 17 12 7 356 354 350 351 348 338 335 330 327 333 339 335 338 339 338 340 340 337 334 331 330 334 332 329 328 334
302 16 357 1 142 222 231 211 171 158 137 163 219 86 46 31 18 13 18 24 16 12 5 355 350 347 348 347 341 337 327 329 334 334 329 337 338 337 338 338 339 333 332 329 331 329 332 326 323
13 38 333 294 238 222 180 253 164 162 174 194 181 69 46 35 20 17 22 21 14 11 3 352 345 343 346 347 341 340 339 336 334 331 328 335 335 334 336 341 339 334 330 327 328 331 324 321 320
326 327 278 271 252 262 195 246 136 151 190 181 97 56 40 33 26 27 28 21 13 9 358 347 341 341 343 345 340 338 333 331 328 329 331 332 331 333 338 341 337 332 328 326 325 323 319 317 314
285 268 228 248 245 258 206 192 145 185 161 105 60 36 29 31 31 29 22 16 9 6 354 344 341 340 340 341 337 336 333 332 332 333 333 332 328 332 338 337 335 329 326 325 323 321 317 315 312
308 324 320 278 230 220 92 215 98 80 74 73 45 26 35 35 31 20 12 7 4 359 351 344 342 339 340 339 338 334 332 330 329 332 330 330 331 333 330 335 331 327 325 324 323 322 318 314 315
325 347 18 314 305 314 209 116 113 106 107 127 60 48 40 35 31 19 10 7 2 355 350 345 341 337 338 337 335 328 329 328 326 327 325 326 328 326 328 332 328 327 325 325 324 322 321 318 317
340 37 37 282 278 275 128 96 134 142 171 102 38 41 35 33 29 16 8 8 2 355 350 343 338 335 335 335 333 327 329 325 324 322 319 322 325 327 330 328 327 326 325 324 324 322 322 320 317
348 336 312 293 319 307 296 120 164 166 106 33 23 36 31 33 27 13 9 7 1 354 343 339 335 333 332 335 334 332 325 321 321 320 322 323 323 325 326 327 327 326 325 325 323 321 321 320 319
209 226 280 276 247 267 296 10 99 109 82 28 28 46 37 36 26 14 9 2 354 349 342 339 336 335 334 334 329 324 322 321 323 322 322 320 320 324 325 327 328 328 327 327 323 320 323 321 317
347 358 342 305 307 302 291 210 130 131 114 64 46 53 49 44 31 18 6 354 349 346 342 340 339 337 335 331 326 323 323 325 325 323 322 322 320 321 323 326 328 328 328 324 321 321 326 321 317
Height
1521 1520 1522 1524 1527 1537 1550 1553 1549 1548 1553 1560 1559 1562 1571 1580 1586 1598 1599 1593 1590 1585 1580 1577 1574 1572 1569 1567 1564 1562 1560 1558 1556 1555 1553 1551 1550 1548 1547 1546 1545 1544 1543 1543 1542 1542 1542 1541 1541
1522 1521 1524 1526 1533 1552 1560 1557 1557 1557 1558 1560 1564 1571 1576 1586 1593 1596 1595 1593 1590 1586 1581 1578 1575 1572 1570 1567 1565 1563 1561 1559 1557 1555 1553 1551 1549 1547 1546 1545 1544 1542 1542 1541 1540 1540 1539 1539 1539
1522 1523 1527 1530 1544 1558 1563 1562 1561 1562 1563 1564 1572 1579 1586 1595 1598 1598 1597 1594 1591 1587 1583 1579 1576 1573 1570 1568 1565 1563 1561 1559 1556 1554 1552 1550 1548 1546 1544 1543 1542 1540 1539 1538 1538 1537 1536 1536 1536
1524 1527 1530 1545 1562 1569 1568 1567 1562 1562 1567 1571 1575 1586 1595 1600 1601 1600 1598 1595 1591 1588 1584 1580 1577 1574 1571 1568 1565 1563 1560 1558 1556 1553 1551 1549 1547 1545 1543 1541 1539 1538 1537 1536 1535 1534 1533 1533 1533
1528 1530 1540 1557 1567 1576 1574 1572 1570 1569 1574 1580 1580 1592 1599 1603 1602 1601 1598 1595 1591 1588 1584 1581 1578 1574 1571 1568 1566 1563 1560 1557 1555 1552 1550 1547 1545 1543 1541 1539 1537 1535 1534 1533 1532 1531 1530 1530 1529
1530 1530 1547 1564 1572 1577 1580 1579 1577 1579 1582 1584 1587 1592 1602 1604 1603 1601 1598 1595 1592 1588 1585 1582 1578 1575 1572 1569 1566 1563 1560 1557 1554 1551 1548 1546 1543 1541 1538 1536 1534 1532 1531 1529 1528 1527 1527 1526 1526
1531 1536 1551 1562 1571 1576 1581 1583 1585 1586 1587 1588 1589 1594 1603 1604 1604 1602 1599 1596 1592 1588 1585 1581 1578 1575 1572 1569 1566 1563 1559 1556 1553 1549 1547 1544 1541 1538 1535 1533 1531 1529 1527 1526 1525 1523 1523 1522 1522
1534 1539 1551 1559 1570 1580 1586 1587 1591 1590 1593 1593 1592 1597 1605 1606 1604 1602 1599 1596 1592 1588 1585 1581 1578 1575 1571 1568 1565 1562 1558 1554 1551 1547 1544 1541 1538 1535 1533 1530 1528 1525 1524 1522 1521 1519 1519 1518 1518
1537 1551 1565 1566 1572 1580 1584 1588 1593 1597 1597 1597 1600 1602 1606 1606 1604 1602 1599 1595 1592 1588 1585 1581 1577 1574 1570 1567 1563 1560 1556 1552 1548 1544 1541 1537 1534 1532 1529 1526 1524 1521 1520 1518 1516 1515 1514 1514 1513
1547 1564 1575 1574 1574 1581 1585 1588 1592 1598 1599 1602 1604 1605 1606 1605 1603 1601 1598 1595 1591 1588 1585 1581 1577 1573 1569 1565 1561 1557 1553 1550 1546 1542 1538 1534 1531 1528 1524 1522 1520 1517 1515 1513 1511 1510 1510 1509 1509
1558 1571 1578 1581 1581 1584 1587 1591 1594 1598 1603 1605 1606 1607 1607 1606 1604 1602 1600 1597 1594 1590 1586 1581 1577 1573 1568 1563 1559 1555 1551 1547 1543 1539 1535 1531 1527 1524 1520 1517 1515 1512 1510 1508 1506 1505 1504 1504 1503
1568 1575 1579 1584 1586 1588 1590 1594 1598 1600 1606 1608 1608 1608 1608 1606 1605 1603 1601 1598 1595 1590 1586 1582 1577 1572 1567 1563 1558 1554 1550 1546 1542 1538 1533 1529 1524 1520 1517 1514 1511 1508 1505 1503 1501 1500 1499 1498 1497
1574 1582 1585 1587 1588 1591 1593 1597 1600 1605 1608 1609 1609 1609 1609 1608 1606 1605 1602 1599 1595 1591 1586 1582 1577 1572 1566 1562 1557 1553 1549 1545 1541 1537 1532 1528 1523 1518 1514 1511 1508 1505 1502 1499 1497 1495 1493 1492 1491
1578 1583 1588 1591 1592 1595 1596 1600 1602 1607 1609 1610 1610 1610 1610 1609 1607 1605 1602 1599 1595 1591 1586 1582 1577 1571 1566 1561 1557 1552 1548 1544 1539 1535 1531 1527 1522 1517 1512 1508 1505 1502 1498 1496 1493 1491 1489 1487 1486
1579 1584 1589 1592 1593 1596 1596 1602 1605 1608 1609 1609 1610 1610 1610 1609 1607 1605 1603 1600 1596 1591 1587 1581 1576 1571 1566 1561 1556 1551 1547 1542 1538 1534 1530 1525 1520 1515 1511 1506 1503 1499 1495 1492 1489 1487 1484 1482 1480
1576 1580 1585 1589 1590 1593 1597 1601 1606 1607 1608 1609 1610 1610 1610 1609 1607 1606 1603 1600 1596 1591 1586 1581 1576 1570 1565 1560 1555 1550 1545 1541 1537 1533 1528 1523 1518 1514 1509 1505 1501 1497 1492 1489 1486 1483 1480 1477 1475
1573 1570 1578 1587 1587 1589 1592 1598 1604 1607 1608 1609 1609 1610 1610 1610 1608 1606 1603 1600 1595 1591 1585 1580 1574 1569 1563 1558 1553 1548 1544 1539 1535 1531 1527 1521 1517 1512 1508 1503 1499 1495 1490 1487 1483 1480 1477 1473 1470
1571 1564 1568 1581 1587 1587 1589 1598 1603 1606 1607 1608 1609 1610 1610 1610 1609 1606 1603 1599 1595 1590 1585 1579 1573 1567 1562 1556 1551 1546 1541 1537 1534 1530 1525 1520 1516 1511 1507 1502 1498 1493 1488 1484 1480 1477 1474 1471 1468
1567 1567 1571 1582 1586 1587 1589 1597 1602 1605 1607 1608 1609 1610 1610 1609 1608 1606 1602 1598 1593 1588 1583 1578 1572 1566 1560 1554 1549 1543 1539 1535 1532 1528 1524 1519 1514 1510 1505 1501 1496 1492 1487 1483 1479 1475 1472 1469 1466
1569 1570 1572 1584 1586 1587 1589 1594 1598 1603 1605 1607 1609 1609 1609 1608 1607 1605 1601 1597 1592 1588 1582 1576 1571 1566 1560 1555 1550 1545 1540 1535 1531 1527 1522 1518 1513 1509 1504 1500 1495 1490 1486 1481 1478 1474 1471 1468 1466
1570 1575 1579 1580 1587 1587 1590 1592 1596 1601 1604 1607 1608 1608 1608 1607 1606 1604 1600 1596 1591 1586 1581 1576 1570 1565 1560 1554 1549 1543 1538 1533 1528 1523 1519 1515 1511 1507 1503 1498 1493 1489 1484 1480 1476 1473 1470 1466 1464
1575 1579 1579 1579 1585 1585 1590 1591 1595 1598 1602 1605 1606 1606 1607 1606 1605 1603 1599 1595 1590 1586 1581 1575 1570 1564 1559 1553 1548 1542 1537 1532 1527 1522 1517 1512 1508 1504 1501 1496 1491 1486 1482 1478 1474 1471 1468 1465 1462
1579 1577 1578 1578 1580 1582 1586 1588 1592 1596 1600 1602 1604 1605 1606 1606 1604 1601 1598 1594 1590 1585 1579 1574 1569 1563 1558 1553 1547 1542 1537 1532 1526 1520 1515 1510 1505 1502 1498 1493 1488 1484 1480 1476 1472 1468 1466 1463 1460
1578 1576 1576 1578 1581 1584 1570 1581 1588 1595 1596 1601 1604 1605 1606 1605 1603 1600 1597 1593 1589 1583 1578 1572 1567 1562 1557 1552 1546 1541 1535 1529 1523 1518 1512 1507 1502 1498 1494 1490 1485 1481 1477 1473 1469 1465 1462 1460 1457
1578 1579 1582 1582 1584 1576 1567 1572 1595 1598 1599 1602 1605 1605 1605 1603 1601 1599 1595 1591 1587 1581 1576 1571 1565 1560 1555 1550 1545 1539 1534 1528 1523 1517 1511 1505 1500 1495 1491 1486 1482 1477 1474 1470 1466 1462 1458 1456 1453
1580 1582 1595 1598 1588 1575 1568 1581 1603 1600 1602 1603 1604 1604 1603 1602 1600 1598 1594 1590 1585 1580 1575 1569 1564 1559 1553 1548 1543 1537 1532 1527 1521 1516 1510 1505 1499 1494 1489 1484 1479 1474 1470 1466 1462 1458 1455 1452 1449
1585 1586 1588 1593 1586 1583 1573 1600 1603 1601 1602 1602 1603 1602 1602 1601 1599 1596 1593 1589 1584 1579 1574 1568 1563 1557 1552 1546 1541 1535 1530 1525 1519 1514 1509 1503 1498 1492 1486 1481 1476 1471 1467 1463 1459 1455 1451 1447 1444
1587 1588 1590 1592 1596 1594 1575 1581 1596 1600 1600 1601 1601 1601 1601 1599 1597 1595 1591 1587 1582 1578 1573 1567 1562 1556 1551 1545 1539 1533 1528 1523 1517 1512 1506 1501 1495 1490 1484 1478 1473 1468 1463 1459 1455 1451 1447 1444 1440
1588 1587 1587 1590 1591 1599 1594 1594 1595 1598 1600 1601 1600 1600 1599 1598 1595 1593 1590 1586 1581 1576 1571 1566 1560 1554 1549 1543 1537 1531 1525 1520 1515 1509 1504 1498 1492 1487 1481 1476 1470 1465 1460 1456 1452 1448 1444 1440 1436
1589 1589 1591 1598 1594 1588 1593 1600 1596 1597 1598 1599 1599 1598 1597 1596 1594 1592 1588 1584 1580 1575 1570 1564 1559 1553 1547 1540 1534 1528 1523 1517 1512 1506 1500 1495 1490 1484 1479 1474 1468 1463 1458 1453 1449 1444 1440 1436 1432